Regional Weather Roundup
Issued by NWS Newport/Morehead, NC

Current Version | Previous Version | Text Only | Print | Product List | Glossary On
Versions: 1 2 3 4 5 6 7 8 9 10 11 12 13 14 15 16 17 18 19 20 21 22 23 24 25 26 27 28 29 30 31 32 33 34 35 36 37 38 39 40 41 42 43 44 45 46 47 48 49 50
000
ASUS42 KMHX 121925
RWRMHX
WEATHER ROUNDUP FOR EASTERN NORTH CAROLINA
NATIONAL WEATHER SERVICE NEWPORT/MOREHEAD CITY NC
200 PM EST FRI FEB 12 2016

NOTE: "FAIR" INDICATES FEW OR NO CLOUDS BELOW 12,000 FEET
WITH NO SIGNIFICANT WEATHER AND/OR OBSTRUCTIONS TO VISIBILITY

NCZ015>017-031-032-045>047-102-103-122000-
NORTH COAST

CITY           SKY/WX    TMP DP  RH WIND       PRES   REMARKS
EDENTON        MIX PCPN  32  28  85 NE8       30.12F VSB 1
ELIZABETH CITY LGT SNOW  29  24  82 E7        30.14F VSB 3/4
KITTY HAWK     LGT SNOW  33  23  67 CALM      30.11F VSB 3/4
MANTEO         LGT SNOW  31  29  94 NE7       30.11F VSB 1

$$

NCZ045>047-081-094-103-104-122000-
CENTRAL COAST

CITY           SKY/WX    TMP DP  RH WIND       PRES   REMARKS
FRISCO         RAIN      34  33  96 NE13G21   30.05F
SWANQUARTER      N/A     30 N/A N/A N9G18     30.03F

$$

NCZ095-097-098-100-101-122000-
SOUTHERN COAST

CITY           SKY/WX    TMP DP  RH WIND       PRES   REMARKS
BEAUFORT       RAIN      35  33  92 NE15G22   30.03F FOG
CEDAR ISLAND     N/A     36 N/A N/A N21G29    30.09F
JACKSONVILLE   CLOUDY    34  31  88 NE10G20   30.04F
PINEY ISLAND   HVY RAIN N/A N/A N/A NE18      30.04F
WILMINGTON     CLOUDY    37  32  82 N7        30.06F


$$

NCZ011>013-027>030-043-044-078>080-089-090>093-098-122000-
COASTAL PLAIN

CITY           SKY/WX    TMP DP  RH WIND       PRES   REMARKS
AHOSKIE        CLOUDY    30  13  49 CALM      30.14F
CLINTON        MIX PCPN  31  29  93 N5        30.11F
ELIZABETHTOWN  CLOUDY    32  28  85 N3        30.07F
GOLDSBORO      FRZ RAIN  30  30 100 N6        30.08F
GREENVILLE     LGT SNOW  30  30 100 NE6       30.11F
HAVELOCK       LGT RAIN  34  32  92 NE17      30.06F FOG
KENANSVILLE    MIX PCPN  31  29  93 CALM      30.10S
KINSTON        DRIZZLE   30  28  93 NE9       30.10F
NEW BERN       MIX PCPN  32  29  88 NE13      30.05F
RICHLANDS      CLOUDY    32  27  80 CALM      30.09R
ROCKY MOUNT    LGT SNOW  28  22  78 NE3       30.12F VSB 1
WASHINGTON     LGT SNOW  30  28  90 NE8       30.08F
WHITEVILLE     CLOUDY    37  25  61 NE8       30.05F

$$

AMZ130-135-150-152-154-156-158-170-250-252-270-ANZ085-086-088-633-658-670-122000-
MARINE OBSERVATIONS

STATION/POSITION TIME  TEMP    WIND        PRES    WAVE   SWELL
                       AIR SEA DIR/SP/G            HT/PER HT/PER
                 (UTC) (F)     (DEG/KT/KT) (MB)    (FT/S) (FT/S)
CHESAPEAKE LIGHT 1900   29     120/  5/  7 1021.4
64 E VA BEACH    1850   33 50  150/  2/  8 1021.0    3/ 6   2/ 6
DUCK             1900   30      80/  8/ 10 1019.4
2 E DUCK         1911      42                N/A     2/ 5
OREGON INLET     1900   31 40   20/  9/ 12 1019.4
13E OREGON INLT  1900      45                N/A     3/ 6
HATTERAS CG      1900   35 47   20/ 15/ 22 1017.1
DIAMOND BUOY     1850   47 59   40/ 10/ 19 1017.7    4/ 7   3/ 7
CAPE LOOKOUT     NOT AVBL
BEAUFORT LAB     1900   35 44   20/ 15/ 20 1016.0
30 SE NEW RVR IN 1908   45 58              1014.8
30 SE NEW RVR IN 1825      58                N/A     5/ 5
27 SE WRIGHTSVLE 1908   35     360/ 21/ 31 1014.4
5 SE WRIGHTSVLE  1808   39 51   20/ 17/ 23 1017.9
225 S CAPE HAT   1850   66 68  230/ 33/ 39   N/A    10/ 7
41 SE CHARLESTON 1850   56 68  300/ 12/ 16 1016.7    4/ 6   3/ 6

$$



USA.gov is the U.S. government's official web portal to all federal, state and local government web resources and services.